SILO ALERT LOG


Silo ID Alert Type Alert Message Silo Type Points Depth (mm) Strength Temperature (°C) Humidity (%) Height (mm) Volume (㎥) Weight (t) Flag Time
WJWJR01 Humidity 습도센서 측정값이 80% 초과 86 7740 1075 24.5 85.1 -100 -11.31 0 0 2026-08-15 05:26:03.000
WJWJR05 Humidity 습도센서 측정값이 80% 초과 56 7890 2463 24.8 82.7 -169 -19.227 0 0 2026-08-15 05:25:50.000
WJWJR01 Humidity 습도센서 측정값이 80% 초과 76 7730 1056 25.4 82 -90 -10.179 0 0 2026-08-15 01:26:06.000
WJWJR01 Humidity 습도센서 측정값이 80% 초과 78 7710 1116 26.2 80.9 -70 -7.917 0 0 2026-08-14 09:26:00.000
WJWJR05 Humidity 습도센서 측정값이 80% 초과 59 7880 2422 25.6 83.3 -160 -18.096 0 0 2026-08-14 09:25:45.000
WJWJR01 Humidity 습도센서 측정값이 80% 초과 75 7790 1102 23.8 82.2 -150 -16.965 0 0 2026-08-14 05:26:04.000
WJWJR05 Humidity 습도센서 측정값이 80% 초과 8497 2913 3142 80 100 7834 5425 8837 15 2026-08-11 10:23:39.000
WJWJR01 Humidity 습도센서 측정값이 80% 초과 6075 2911 9840 80 100 8089 4319 1308 15 2026-08-11 10:23:38.000
WJWJR01 Humidity 습도센서 측정값이 80% 초과 5341 4067 1408 80 100 8753 4876 6594 15 2026-08-11 10:23:33.000
WJWJR05 Humidity 습도센서 측정값이 80% 초과 3610 2161 3222 80 100 6905 7260 3743 15 2026-08-11 10:23:32.000
WJWJR01 Humidity 습도센서 측정값이 80% 초과 1812 2145 6228 80 100 4121 8881 7113 15 2026-08-11 10:23:26.000
WJWJR05 Humidity 습도센서 측정값이 80% 초과 4251 3049 8551 80 100 3576 8813 5384 15 2026-08-11 10:23:26.000
WJWJR05 Humidity 습도센서 측정값이 80% 초과 1480 7777 2825 80 100 2764 7583 5929 15 2026-08-11 10:21:48.000
WJWJR01 Humidity 습도센서 측정값이 80% 초과 5198 7382 1509 80 100 6648 1255 8068 15 2026-08-11 10:21:47.000
WJWJR01 Humidity 습도센서 측정값이 80% 초과 7002 2159 1858 80 100 9783 4719 5452 15 2026-08-11 10:19:34.000
WJWJR05 Humidity 습도센서 측정값이 80% 초과 3612 7352 1972 80 100 7588 7645 8614 15 2026-08-11 10:19:33.000
WJWJR01 Humidity 습도센서 측정값이 80% 초과 2507 5146 8960 80 100 8092 2142 3833 15 2026-08-11 02:36:26.000
WJWJR05 Humidity 습도센서 측정값이 80% 초과 1863 3063 6635 80 100 1795 8883 9831 15 2026-08-11 02:36:22.000
WJWJR05 Humidity 습도센서 측정값이 80% 초과 60 7870 2501 28.6 80.6 -150 -16.965 0 0 2026-08-08 09:25:45.000
WJWJR01 Humidity 습도센서 측정값이 80% 초과 74 7710 1078 27 83.8 -70 -7.917 0 0 2026-08-08 05:25:59.000

[첫 페이지] [7] [8] [9] [10] 11 [12] [13] [14] [15] [마지막 페이지]